Theta_e
325 331 332 332 334 334 334 335 337 335 333 335 336 335 333 334 333 330 329 327 326 327 327 326 325 326 326 325 323 320 319 317 316 313 312 311 311 311 310 311 310 311 311 310
328 332 332 334 332 334 336 338 337 334 332 334 334 334 331 330 329 332 331 328 326 327 327 326 326 327 326 321 324 321 320 318 316 313 312 311 311 312 313 310 311 311 310 310
326 330 332 332 332 334 336 336 337 338 334 333 333 335 333 330 329 328 329 329 328 327 328 327 326 327 324 322 324 321 320 318 315 313 312 311 312 313 313 313 311 309 309 310
330 329 333 332 333 332 334 331 335 336 336 339 332 339 333 331 331 329 328 328 328 328 328 328 328 327 326 326 324 322 321 319 316 313 311 312 312 312 313 314 313 310 310 310
331 330 331 331 331 331 333 333 335 334 334 334 331 334 332 331 331 331 330 329 328 327 326 327 327 327 327 325 323 322 322 318 315 313 312 312 312 312 313 313 313 312 310 311
330 331 328 331 330 330 330 331 329 329 330 334 331 331 333 332 331 330 328 329 328 328 327 325 325 325 326 325 323 323 321 316 314 312 312 312 312 313 313 312 313 313 312 311
330 329 328 327 331 328 331 333 333 335 335 336 330 328 330 327 327 328 327 328 328 328 327 326 326 326 325 325 323 322 319 316 313 313 312 312 313 313 312 312 312 312 313 312
333 333 328 326 327 330 331 327 329 330 330 334 328 331 328 324 325 327 326 326 326 326 326 326 326 326 324 321 321 318 318 316 313 313 311 312 313 312 311 311 311 309 308 308
333 333 327 325 324 326 329 331 325 331 329 332 332 329 325 323 325 325 325 324 322 323 325 324 322 321 320 320 320 317 317 316 313 313 312 312 313 312 311 311 311 310 310 310
329 333 326 327 324 324 328 324 330 328 334 332 330 329 328 323 320 319 318 318 318 320 321 321 322 320 320 319 319 319 317 316 314 313 312 312 312 312 311 312 312 311 310 310
328 330 326 325 326 325 326 327 328 328 329 332 330 330 321 318 319 321 320 319 319 319 319 317 316 316 316 317 318 318 317 315 314 313 312 311 312 313 311 311 311 311 311 311
326 327 327 324 323 321 323 326 327 329 331 328 328 328 320 320 320 320 319 320 320 319 319 317 318 318 316 317 316 315 315 315 314 313 313 312 312 314 311 312 310 311 311 313
328 328 328 326 325 322 323 321 324 326 326 328 326 326 321 321 321 321 320 319 319 318 318 315 314 314 313 313 316 317 316 315 315 314 313 312 312 313 314 312 311 311 311 312
327 328 331 330 326 323 323 322 319 322 323 325 323 324 323 323 322 320 319 318 317 314 312 310 310 310 311 312 313 314 315 315 315 315 313 313 312 313 313 311 311 310 312 312
327 326 323 323 322 323 323 323 322 322 320 323 324 324 324 323 321 319 317 314 311 310 309 309 310 311 311 312 312 312 312 314 314 314 314 313 312 312 313 312 311 310 311 311
324 324 324 325 323 323 324 324 324 324 324 324 324 324 318 319 320 315 311 310 310 310 310 310 311 312 312 312 311 308 310 313 314 314 314 313 313 312 312 311 311 310 311 312
327 325 326 327 324 325 327 325 325 325 324 324 325 320 317 317 314 310 310 311 311 311 311 311 312 312 312 311 309 308 309 314 315 314 312 312 312 313 312 312 312 310 311 313
328 329 329 327 326 330 327 324 323 323 320 320 318 317 315 313 312 312 311 311 312 312 311 310 310 311 309 309 308 308 308 309 315 316 315 312 311 313 312 313 312 312 312 312
329 331 332 333 330 327 325 323 323 323 322 317 316 316 311 311 311 310 311 311 312 312 310 308 308 308 308 309 308 308 308 308 310 313 315 312 311 311 312 312 312 312 311 312
327 329 332 328 333 332 327 320 320 319 324 314 314 313 311 312 311 311 311 311 310 311 309 308 307 307 307 306 307 307 310 310 307 308 315 313 313 313 313 313 312 313 312 311
331 330 332 330 332 328 320 317 320 324 321 313 313 312 313 313 311 311 310 312 311 310 310 310 309 309 309 308 307 307 310 310 309 309 311 315 314 313 313 312 313 313 312 312
328 330 329 329 331 328 316 316 320 315 313 312 312 312 312 312 312 312 312 312 311 310 311 311 310 310 310 309 309 308 309 309 309 309 310 310 312 312 314 310 313 314 314 313
328 326 327 325 324 317 315 313 311 310 311 311 311 311 311 311 312 312 312 311 310 310 309 308 308 308 310 310 309 308 308 309 309 308 308 308 309 311 311 310 313 314 314 312
322 318 322 321 318 315 313 313 312 311 312 312 311 311 311 312 312 311 310 309 309 307 306 306 305 306 308 307 307 307 308 308 308 307 308 307 306 308 310 310 310 311 313 313
324 320 321 321 317 316 314 313 313 313 312 312 311 312 311 310 309 308 308 307 307 306 305 306 305 305 304 304 303 303 303 303 303 306 308 307 307 306 307 308 309 310 311 314
321 323 323 321 319 318 317 315 312 313 313 312 311 310 309 307 307 306 307 306 305 304 305 305 303 302 302 301 301 301 300 300 301 301 306 307 307 306 305 307 307 308 309 311
Wind_Speed
1 3 3 4 5 3 6 6 7 5 4 8 8 6 3 4 6 10 9 10 10 11 11 14 14 12 15 14 13 12 13 14 16 19 21 16 13 12 12 12 11 12 13 13
3 2 2 8 10 10 10 14 6 6 4 4 6 5 4 4 2 3 10 17 10 6 6 12 17 16 11 8 17 14 13 16 14 18 18 13 12 13 15 14 11 12 13 13
2 1 4 3 6 6 5 4 10 7 10 6 6 3 1 4 3 4 6 11 13 12 10 9 15 15 9 7 12 15 15 15 15 17 17 12 12 13 14 15 14 11 9 10
1 2 2 4 2 1 5 4 13 16 10 2 2 1 2 3 5 5 7 10 13 13 11 8 10 14 16 15 13 15 17 16 16 18 15 11 12 15 16 18 16 12 10 11
2 3 4 3 5 2 4 6 12 12 6 6 3 3 3 3 1 4 4 8 10 11 12 9 11 12 10 12 15 17 17 15 15 15 13 11 14 18 19 19 16 12 11 11
3 3 5 3 8 7 14 14 10 5 3 3 2 2 3 1 3 5 5 6 8 11 13 15 11 10 12 12 14 16 16 12 14 15 14 11 14 18 20 18 15 12 13 11
3 4 3 6 6 2 5 7 2 4 4 1 2 2 2 4 3 4 10 10 8 8 10 11 9 11 11 13 13 15 12 12 13 16 15 10 15 17 19 17 15 14 13 13
3 4 6 7 2 1 8 3 4 7 6 1 2 2 3 6 4 4 6 7 8 9 9 11 11 13 12 11 11 15 13 14 12 16 15 10 15 16 14 12 13 13 13 11
3 2 2 7 5 2 3 3 2 4 1 3 2 3 1 4 9 10 14 16 18 17 14 12 10 13 17 18 14 15 15 15 12 15 16 11 13 13 9 8 9 13 14 12
3 3 4 3 2 11 4 5 2 1 2 2 2 2 2 12 12 13 19 19 19 17 17 18 18 19 16 18 15 19 17 17 14 13 18 12 13 10 6 7 10 9 11 12
4 1 2 0 6 5 1 1 4 3 2 2 1 3 8 6 7 9 12 15 17 17 19 20 20 25 21 20 20 20 19 19 18 14 15 13 15 11 9 8 10 14 10 9
2 3 3 4 4 3 3 4 2 3 3 2 2 2 5 5 7 9 12 14 15 15 18 20 18 21 25 23 20 19 18 21 21 19 17 14 16 15 13 10 11 12 14 11
4 2 4 3 3 2 4 4 3 4 1 1 3 3 3 3 7 11 13 14 15 18 20 20 22 23 26 26 26 25 22 23 22 21 20 18 17 18 16 12 12 12 15 13
5 3 1 2 4 3 3 4 2 1 0 3 0 4 1 6 9 13 13 14 15 16 17 20 21 23 23 24 24 24 21 20 21 23 20 20 19 19 19 10 14 10 15 12
3 4 5 9 6 5 5 5 6 5 3 2 3 2 5 8 9 9 10 11 12 14 17 19 20 21 22 24 26 24 25 23 21 20 22 20 20 18 16 13 11 11 12 11
2 4 4 5 4 5 7 6 9 8 6 5 2 1 6 6 2 6 9 9 12 14 18 20 21 21 23 24 26 30 27 24 20 22 20 20 20 18 15 12 10 14 10 12
3 6 4 4 6 3 3 2 3 4 3 2 3 0 7 5 5 8 9 11 13 16 19 21 23 22 22 23 27 31 30 23 21 17 13 22 22 19 14 15 14 10 11 11
8 6 2 4 5 4 3 5 4 5 5 4 3 2 3 4 7 10 11 12 14 16 19 20 21 21 24 24 26 29 28 27 23 17 16 16 18 17 13 14 15 13 9 9
3 4 3 4 5 2 4 5 5 4 3 5 2 1 3 5 8 6 11 11 15 16 18 20 21 22 23 23 24 26 27 27 25 20 13 15 15 19 12 18 15 15 12 10
7 5 2 3 3 4 3 2 3 3 5 5 2 2 4 6 7 9 14 18 18 17 19 20 20 20 21 22 24 25 24 25 29 26 18 13 14 18 17 14 15 17 14 13
1 2 1 3 3 1 1 2 8 4 3 3 3 3 6 7 10 17 20 20 18 19 20 21 22 22 22 22 24 25 22 23 24 23 22 11 12 20 20 20 15 15 21 20
2 3 2 2 3 3 4 5 3 4 4 4 4 5 9 12 16 18 20 20 21 21 21 23 25 25 25 21 22 23 22 23 21 21 19 16 16 14 16 23 17 16 17 21
3 1 1 2 1 3 4 10 11 8 5 2 3 6 8 15 17 19 19 18 19 19 20 22 24 25 21 19 20 21 22 23 21 19 18 17 17 15 10 18 16 14 17 21
3 2 2 4 4 9 10 10 7 4 2 4 9 12 14 15 14 14 15 17 18 19 20 22 23 20 18 19 19 19 20 21 21 19 17 17 18 16 12 12 16 21 17 18
1 9 5 1 5 5 7 8 6 7 9 10 10 12 11 11 12 14 15 16 16 18 20 19 17 17 19 21 22 22 22 21 21 19 18 16 16 17 16 13 14 15 8 15
7 5 4 2 11 5 8 9 5 6 7 7 6 7 10 13 14 16 13 15 17 19 17 14 17 20 21 22 22 21 22 21 21 19 17 17 15 17 16 16 13 11 15 9
Wind_Direction
161 218 262 39 207 147 131 140 119 107 124 70 88 108 49 223 206 225 230 220 226 229 229 230 232 259 251 256 263 284 309 329 331 343 349 350 351 354 347 335 327 326 326 328
152 263 102 103 151 144 138 138 124 107 142 110 142 99 120 88 45 292 234 225 235 253 258 251 247 263 284 287 265 270 300 315 324 340 344 349 353 360 3 357 330 321 323 321
234 48 117 69 140 146 180 191 173 149 136 103 143 132 205 213 276 300 249 242 252 265 278 268 256 264 252 256 257 270 290 307 323 334 338 343 347 347 348 351 347 329 331 330
35 0 71 42 345 219 233 280 155 144 169 161 238 275 255 304 303 283 263 247 248 254 264 275 249 264 253 271 266 281 291 303 315 327 331 332 337 335 336 340 344 343 331 327
66 45 55 57 347 311 60 112 132 141 110 144 130 250 96 299 327 2 289 254 249 247 254 288 276 269 268 276 275 280 288 298 311 322 326 326 337 333 335 337 332 334 331 326
85 65 49 66 27 108 123 113 100 108 136 220 95 288 92 27 341 336 349 322 274 257 255 279 294 289 268 283 281 289 288 298 314 328 330 320 332 331 334 335 329 324 329 328
122 45 82 75 109 182 150 164 179 222 213 335 115 187 61 326 309 300 331 331 326 287 264 276 289 287 297 279 295 291 282 297 315 331 331 310 322 331 335 339 338 328 322 322
189 182 22 11 20 304 157 287 289 287 285 99 157 156 87 342 281 306 315 322 344 343 316 298 295 303 297 304 293 301 284 289 315 331 328 308 324 332 340 357 359 358 345 336
138 125 316 38 50 315 156 243 45 108 103 214 127 152 182 44 51 13 11 7 358 354 342 329 330 324 316 315 287 301 287 286 304 329 328 303 315 329 336 356 8 10 10 11
92 132 18 354 172 58 39 117 231 151 232 241 153 187 41 347 358 20 26 20 14 19 19 12 356 344 328 323 304 291 291 280 291 318 326 293 300 312 326 330 333 344 356 354
100 26 44 33 25 354 5 95 65 91 350 291 221 128 360 357 35 45 42 36 28 23 23 21 10 359 352 340 319 302 297 287 288 296 312 292 291 284 292 303 315 322 317 343
57 93 76 74 34 56 69 44 346 290 157 62 329 119 30 57 48 33 22 5 358 2 356 344 334 337 344 335 337 325 311 315 295 287 299 294 277 287 277 286 304 310 314 306
172 74 134 157 162 126 49 25 62 90 107 147 272 131 67 56 15 6 3 6 5 9 1 351 350 346 342 338 335 320 309 300 288 287 285 288 278 285 277 277 287 301 302 310
94 77 313 327 76 98 102 24 356 291 235 140 308 156 34 355 356 11 7 12 5 2 354 354 354 349 347 344 340 336 321 297 294 277 270 288 285 285 288 270 281 285 292 309
70 82 79 60 78 94 105 75 62 79 87 305 122 140 355 349 351 7 359 354 358 3 357 352 349 351 349 346 345 340 333 325 308 282 265 271 286 282 291 265 277 281 294 294
43 117 110 67 91 111 103 94 91 90 95 112 159 148 4 351 328 353 350 352 348 349 347 342 341 339 341 342 342 342 336 323 315 283 282 257 280 283 278 259 263 263 279 300
104 146 159 168 164 112 174 129 143 134 175 190 263 252 338 353 346 338 339 336 337 339 338 334 333 333 335 339 340 342 341 334 326 287 276 270 260 280 272 260 253 259 255 283
140 123 113 150 191 244 68 186 219 146 144 136 162 303 1 332 323 316 323 317 323 327 333 336 333 332 336 339 343 345 348 350 343 318 286 250 247 274 278 266 255 264 245 262
123 139 140 183 207 10 195 184 185 235 210 192 271 223 319 326 317 342 338 320 315 314 325 333 335 335 339 342 345 345 350 354 352 347 309 249 242 262 272 256 263 251 251 260
82 76 245 162 232 252 94 131 228 205 254 169 208 240 299 310 327 329 324 323 321 316 317 325 327 328 332 336 341 346 343 346 352 353 344 252 235 270 277 266 242 257 256 258
108 48 212 178 231 256 127 102 134 225 72 159 204 255 281 277 293 304 319 313 314 318 315 319 317 319 319 322 329 338 340 341 346 346 350 331 279 265 258 263 264 234 245 252
208 180 186 182 233 234 151 125 234 105 150 174 219 272 280 292 301 306 314 320 320 316 316 318 318 322 320 316 322 331 334 338 339 345 346 340 336 327 268 241 270 255 241 245
204 271 243 252 60 116 145 126 129 124 123 176 271 302 306 309 309 317 322 327 330 331 333 332 333 333 335 329 333 334 330 332 332 338 348 343 343 347 296 248 274 265 251 235
151 151 147 178 167 157 148 149 148 165 229 282 288 306 307 309 322 331 338 339 336 338 340 338 335 337 338 338 339 337 333 330 326 327 334 345 352 347 340 318 298 273 263 245
115 161 151 134 170 176 205 201 210 246 271 290 303 312 313 322 335 340 337 340 342 339 339 343 347 349 346 341 337 333 331 329 327 324 323 332 338 344 346 336 333 265 306 250
186 157 193 213 178 176 188 200 219 263 280 295 321 330 327 330 335 336 344 342 340 339 344 352 347 340 341 341 341 340 338 338 335 325 320 321 326 334 339 337 338 333 282 311